CST,Max TemperatureF,Mean TemperatureF,Min TemperatureF,Max Dew PointF,MeanDew PointF,Min DewpointF,Max Humidity, Mean Humidity, Min Humidity, Max Sea Level PressureIn, Mean Sea Level PressureIn, Min Sea Level PressureIn, Max VisibilityMiles, Mean VisibilityMiles, Min VisibilityMiles, Max Wind SpeedMPH, Mean Wind SpeedMPH, Max Gust SpeedMPH,PrecipitationIn, CloudCover, Events, WindDirDegrees
2013-12-1,57,50,42,48,42,37,100,78,62,30.20,30.07,29.91,10,10,9,9,5,,0.00,5,,176
2013-12-2,59,50,41,52,46,41,100,93,72,29.90,29.79,29.71,10,4,0,8,3,,0.00,4,Fog,139
2013-12-3,57,50,42,57,52,43,100,100,94,29.76,29.71,29.67,5,2,0,10,5,,0.00,7,Fog,125
2013-12-4,69,62,55,63,58,48,100,91,68,29.84,29.70,29.64,10,5,1,24,9,32,0.00,5,,200
2013-12-5,55,42,30,48,34,27,100,83,61,30.24,30.08,29.84,10,6,1,18,12,24,0.96,6,Rain,347
2013-12-6,32,26,19,30,21,14,93,88,74,30.54,30.34,30.19,10,4,0,,,,5.60,5,Rain-Snow-Thunderstorm,-1
2013-12-7,23,16,10,16,11,5,85,75,68,30.69,30.56,30.42,10,10,10,16,12,24,0.00,2,,40
2013-12-8,28,24,19,28,23,14,100,93,80,30.39,30.20,30.07,10,4,0,16,9,21,0.02,4,Fog-Rain-Snow,2
2013-12-9,32,30,28,28,25,19,100,83,69,30.33,30.26,30.17,10,8,3,10,5,,0.00,6,,348
2013-12-10,32,26,19,25,21,16,100,81,69,30.44,30.37,30.28,10,9,3,14,8,,0.00,2,,243
2013-12-11,39,27,15,28,22,16,100,82,56,30.65,30.48,30.37,10,7,0,10,4,,0.00,0,Fog,357
2013-12-12,30,22,15,21,16,10,86,73,55,30.65,30.56,30.37,10,10,7,9,4,,0.00,0,,126
2013-12-13,37,30,23,34,27,19,100,87,70,30.37,30.18,29.97,10,7,1,13,4,,0.33,2,Rain,123
2013-12-14,39,36,32,37,32,27,100,89,75,30.18,29.97,29.83,10,7,1,15,7,24,0.36,7,Rain,321
2013-12-15,37,34,32,32,29,25,87,81,70,30.29,30.21,30.15,10,8,5,15,10,20,0.00,4,,246
2013-12-16,53,44,35,43,36,32,87,78,62,30.15,30.10,30.06,10,10,6,15,11,,0.00,0,,220
2013-12-17,53,42,32,36,33,27,100,75,44,30.34,30.22,30.12,10,10,9,12,6,,0.00,0,Thunderstorm,307
2013-12-18,53,40,28,41,34,27,100,75,47,30.34,30.22,30.06,10,9,1,18,5,22,0.00,0,,181
2013-12-19,59,52,46,52,45,41,82,77,71,30.07,30.00,29.88,10,9,7,22,15,29,0.00,2,,190
2013-12-20,66,63,60,64,61,57,100,93,88,29.90,29.83,29.75,10,9,3,24,17,32,0.01,7,Rain,196
2013-12-21,62,50,39,63,46,37,100,99,87,29.76,29.64,29.49,10,4,1,18,9,52,5.57,6,Rain-Thunderstorm,10
2013-12-22,48,40,33,48,36,27,100,85,66,30.29,29.98,29.73,10,8,1,20,9,24,0.00,7,,284
2013-12-23,37,32,26,27,21,18,80,64,48,30.56,30.47,30.29,10,10,7,15,10,22,0.00,3,,334
2013-12-24,28,22,17,19,13,7,80,66,43,30.67,30.56,30.42,10,10,10,15,10,17,0.00,1,,57
2013-12-25,41,32,24,32,27,19,100,79,60,30.42,30.37,30.30,10,10,1,14,5,16,0.00,2,,209
2013-12-26,44,35,26,32,30,27,100,84,53,30.47,30.40,30.37,10,7,2,12,5,,0.00,0,,216
2013-12-27,51,40,28,39,33,28,100,82,54,30.47,30.40,30.35,10,6,1,10,5,,0.00,0,,208
2013-12-28,46,39,32,39,35,32,100,87,66,30.35,30.19,29.99,10,6,1,8,3,,0.00,2,Rain,167
2013-12-29,48,37,26,37,31,18,100,79,62,30.27,30.07,29.95,10,7,2,18,8,24,0.00,3,,296
2013-12-30,28,26,23,23,16,10,86,68,51,30.36,30.31,30.27,10,9,4,15,8,18,0.00,1,,357
2013-12-31,44,34,23,32,25,19,93,78,53,30.46,30.37,30.29,10,10,5,10,5,,0.00,0,,199